Probability
25 27 29 32 33 32 30 27 22 20 22 19 14 7 2 0 0 1 1 0 0 0 0 0 0 0 0 0 0 0 0 0 0 0 0 0 0 0 0 1 0 0 0
34 35 36 39 43 43 40 37 33 29 25 21 17 11 4 2 2 2 2 1 0 0 0 0 0 0 0 0 0 0 0 0 0 0 0 0 0 0 0 1 0 0 0
48 50 51 52 55 57 55 52 51 45 35 27 24 18 10 7 6 6 5 4 2 1 1 2 2 2 3 2 1 0 0 0 0 0 0 0 0 0 0 0 0 0 0
59 63 66 66 66 68 68 66 65 58 46 38 34 29 21 15 13 13 12 10 9 7 7 7 6 5 7 6 3 1 1 0 0 0 0 0 0 0 0 0 0 0 0
68 71 73 73 73 75 76 76 73 65 54 48 45 39 30 20 15 17 18 19 21 20 18 18 13 9 7 6 3 1 1 0 0 0 0 0 0 0 0 0 0 0 0
72 73 75 75 76 77 77 78 76 69 61 56 52 46 36 22 11 10 16 23 29 32 33 30 22 11 7 4 2 1 1 0 0 0 0 0 1 2 2 1 0 0 0
70 71 74 77 78 77 75 75 76 74 70 65 59 53 43 27 9 3 7 16 24 30 36 39 32 20 13 11 7 3 1 0 0 0 0 0 1 2 2 1 0 0 1
64 66 69 72 74 74 72 71 73 75 74 70 65 59 52 36 15 3 1 5 12 18 26 34 36 30 21 17 14 12 10 6 2 0 0 0 0 1 1 0 0 0 1
52 55 58 60 62 64 65 65 67 68 67 64 61 61 57 43 22 5 0 2 5 10 16 21 24 24 19 12 12 19 22 16 7 1 0 0 0 0 0 0 0 0 1
39 41 43 44 46 48 50 53 55 57 56 52 52 56 58 47 26 7 0 2 7 11 12 11 9 8 8 4 7 15 20 18 13 8 5 3 1 0 0 0 0 0 0
28 29 30 29 29 30 34 38 40 42 43 42 45 50 50 42 23 6 0 2 7 10 9 7 3 1 1 1 3 6 8 10 14 13 9 5 3 2 3 3 2 1 0
19 19 19 19 18 19 23 26 28 27 27 29 33 37 36 29 16 4 0 1 3 5 5 3 1 0 0 0 0 1 1 3 7 8 5 3 2 3 6 9 10 9 6
9 8 8 10 11 12 15 16 16 15 13 14 16 17 17 14 8 2 0 0 0 1 1 1 0 0 0 0 0 0 0 0 1 1 0 0 0 3 7 10 14 16 13
2 1 1 2 4 6 6 6 6 6 5 5 4 4 4 5 3 1 0 0 0 0 0 0 0 0 0 0 0 0 0 0 0 1 1 0 0 2 4 7 9 11 11
0 0 0 0 1 1 1 1 1 1 1 1 1 1 0 1 1 0 0 0 0 0 0 0 0 0 0 0 0 0 0 0 0 1 2 1 1 1 2 4 4 3 3
0 0 0 0 0 0 0 0 0 0 0 0 0 0 0 0 0 0 0 0 0 0 0 0 0 0 0 0 0 0 0 0 0 2 2 2 2 3 3 3 3 1 0
0 0 0 0 0 0 0 0 0 0 0 0 0 0 0 0 0 0 0 0 0 0 0 0 0 0 0 0 0 0 0 0 1 2 2 1 2 4 4 3 1 0 0
0 0 0 0 0 0 0 0 0 0 0 0 0 0 0 0 0 0 0 0 0 0 0 0 0 0 0 0 0 1 1 1 2 2 1 0 1 3 3 1 0 0 0
0 0 0 0 0 0 0 0 0 0 0 0 0 0 0 0 0 0 0 0 0 0 0 0 0 0 0 0 0 0 1 1 2 2 1 0 0 1 1 0 0 0 0
0 0 0 0 0 0 0 0 0 0 0 0 0 0 0 0 0 0 0 0 0 0 1 1 0 0 0 0 0 0 0 1 1 2 1 0 0 0 0 0 0 0 0
0 0 0 0 0 0 0 0 0 0 0 0 0 0 0 0 0 0 0 0 0 0 1 1 0 0 0 0 0 0 0 0 0 1 1 0 0 0 0 0 0 0 0
0 0 0 0 0 0 0 0 0 0 0 0 0 0 0 0 0 0 0 0 0 0 1 1 0 0 0 0 0 0 0 0 0 0 1 0 0 0 0 0 0 0 0
0 0 0 0 0 0 0 0 0 0 0 0 0 0 0 0 0 0 0 0 0 0 0 0 0 0 0 0 0 0 0 0 0 0 0 0 0 0 0 0 0 0 0
0 0 0 0 0 0 0 0 0 0 0 0 0 0 0 0 0 0 0 0 0 0 0 0 0 0 0 0 0 0 0 0 0 0 0 0 0 0 0 0 0 0 0
0 0 0 0 0 0 0 0 0 0 0 0 0 0 0 0 0 0 0 0 0 0 0 0 0 0 0 0 0 0 0 0 0 0 0 0 0 0 0 0 0 0 0
0 0 0 0 0 0 0 0 0 0 0 0 0 0 0 0 0 0 0 0 0 0 0 0 0 0 0 0 0 0 0 0 0 0 0 0 0 0 0 0 0 0 0
Wind_Speed
11 10 8 9 9 7 6 6 5 4 5 6 6 6 6 6 6 5 5 4 5 4 4 4 4 3 3 3 2 2 2 2 3 3 3 1 1 3 2 3 4 4 6
10 9 8 8 8 9 8 7 6 6 6 6 6 6 7 7 7 7 7 6 5 6 5 5 4 4 5 4 3 4 3 3 3 4 4 3 4 4 5 5 5 7 5
11 10 10 9 9 9 9 8 8 7 7 8 8 7 7 7 7 7 7 6 6 6 6 6 6 5 5 4 4 4 3 4 3 4 4 4 4 4 4 5 6 5 7
12 12 11 11 10 9 9 8 9 8 8 8 8 8 8 7 7 7 7 7 7 6 6 6 6 6 6 6 6 6 5 5 4 4 5 5 5 5 4 4 4 4 6
10 10 10 10 9 9 8 9 9 9 10 8 7 8 8 8 9 9 8 9 8 7 7 7 8 9 9 7 7 5 5 5 4 5 5 4 4 3 3 3 4 4 4
6 7 7 8 8 8 8 8 8 8 8 8 8 8 9 9 10 12 9 7 6 7 8 7 8 9 11 13 13 12 9 7 6 5 5 6 5 4 3 3 3 3 4
4 4 4 6 7 7 8 7 7 7 7 6 6 7 8 8 7 8 10 6 6 6 6 6 8 10 10 10 13 16 15 16 14 9 9 9 7 5 4 5 4 5 5
3 2 1 2 4 5 5 5 4 4 5 5 5 6 6 7 9 9 10 7 7 7 7 7 8 9 10 8 8 9 11 12 14 13 12 13 11 8 7 7 7 7 6
6 5 5 3 1 2 2 3 3 3 3 3 3 4 5 6 7 9 9 6 7 8 8 9 10 9 12 13 10 10 10 9 14 17 18 18 18 17 11 6 6 6 8
7 7 7 7 6 4 3 2 1 1 2 3 4 4 5 5 5 8 10 6 7 7 7 9 13 12 12 12 10 10 12 11 10 11 11 14 15 15 16 12 10 9 9
7 7 7 7 5 5 4 3 2 1 1 2 3 4 4 4 5 7 10 6 6 6 6 6 5 6 8 9 9 9 13 11 8 9 9 8 9 10 11 12 12 12 12
8 8 7 7 5 5 4 3 3 2 3 3 3 4 3 3 2 3 7 9 7 6 6 6 5 7 9 10 10 12 15 12 9 9 9 9 9 9 9 11 13 15 14
8 7 6 5 4 4 3 3 2 2 2 3 3 3 3 2 2 3 1 5 8 7 7 10 11 13 13 10 13 15 12 9 9 10 11 10 9 9 9 9 10 12 14
5 4 3 3 3 3 3 3 3 3 3 3 4 4 4 4 4 4 4 4 6 6 6 9 12 14 13 14 13 11 9 10 10 10 10 9 8 8 9 8 8 8 9
5 4 3 3 2 2 1 1 1 1 0 1 2 3 3 3 3 3 4 4 5 5 7 7 8 8 8 7 7 7 7 7 9 9 9 10 9 9 9 7 7 7 8
6 6 5 4 3 3 2 2 1 3 4 5 5 4 2 2 3 5 6 8 9 8 5 7 9 9 9 9 8 8 7 7 7 7 8 9 9 9 9 8 8 8 9
6 5 5 5 5 5 5 4 4 3 4 6 6 5 5 6 7 8 9 10 11 8 6 8 8 7 7 8 8 8 9 8 7 7 8 8 8 8 8 8 8 8 9
7 5 5 5 6 6 5 5 5 6 4 3 2 3 4 6 9 11 10 8 8 6 6 7 7 7 7 7 8 8 9 9 9 8 8 8 7 8 8 8 8 9 8
7 5 5 6 7 7 6 6 6 7 7 6 5 4 4 7 9 10 8 5 8 8 8 8 8 8 8 7 7 7 8 9 10 10 9 9 8 8 8 8 8 10 9
5 4 5 6 7 6 7 7 8 8 8 7 7 8 9 9 8 8 6 6 7 8 8 8 8 8 8 8 8 8 9 9 9 9 9 9 8 8 9 9 8 8 7
8 7 7 7 6 7 7 8 8 8 8 8 8 8 10 9 9 9 9 8 8 8 8 8 8 8 8 8 7 8 10 9 9 9 9 9 8 8 7 7 7 7 6
8 7 7 7 7 6 7 8 8 8 9 9 8 8 10 8 8 9 9 9 9 8 8 8 8 8 8 8 8 8 9 9 9 9 9 9 8 8 7 7 6 6 6
7 7 6 6 7 7 7 7 7 8 8 8 8 8 8 8 8 8 9 9 9 9 9 8 8 8 8 8 7 7 8 8 8 9 9 9 8 8 8 8 9 8 7
6 7 7 7 7 7 7 7 7 8 8 8 8 7 7 8 8 9 9 9 9 9 9 8 9 12 14 11 8 7 7 8 10 9 11 10 10 9 8 8 8 8 7
6 7 7 6 6 6 6 7 7 7 8 7 7 8 8 8 8 9 9 8 10 10 12 11 9 10 13 15 14 11 9 10 9 9 9 9 10 10 10 10 8 8 8
7 7 6 6 6 6 6 7 7 7 7 7 7 7 8 8 9 9 9 9 10 10 11 10 12 13 14 12 13 13 10 10 10 10 8 8 9 9 9 8 10 9 9
Wind_Direction
192 193 191 186 193 195 199 201 197 181 166 169 179 185 189 191 191 198 232 227 205 220 237 230 216 236 279 311 300 271 255 254 270 290 303 314 196 218 224 236 255 245 231
192 189 192 190 190 194 198 197 189 188 185 184 189 193 200 201 195 197 217 231 217 217 226 235 232 232 216 235 267 280 272 257 248 270 281 275 259 226 217 223 247 261 263
191 192 192 197 197 197 197 193 190 189 194 195 194 199 207 208 199 202 210 228 233 227 226 227 228 234 237 232 239 254 268 271 246 250 263 259 254 245 230 229 243 250 262
192 193 194 197 199 199 198 194 191 191 198 205 199 201 204 211 211 207 209 217 228 235 235 234 233 230 230 227 237 239 245 259 264 259 256 254 248 239 218 221 244 242 249
189 191 195 195 196 198 200 198 194 195 202 206 208 206 207 212 217 211 212 218 217 227 235 236 237 235 236 232 238 236 239 240 249 255 258 259 256 249 237 228 244 253 252
178 184 185 187 190 195 198 197 194 197 203 200 207 213 215 223 221 213 208 226 223 224 230 233 239 238 233 229 234 239 238 243 250 255 263 261 263 265 264 262 260 264 269
157 170 173 176 185 189 197 196 198 197 201 211 210 216 218 224 223 207 209 221 242 250 251 248 253 254 240 227 227 232 239 240 236 241 254 258 265 270 276 274 266 262 260
106 108 114 159 189 188 185 184 190 191 202 213 223 231 234 231 213 209 210 222 240 248 252 255 254 258 264 257 246 237 230 233 231 231 240 247 250 250 251 255 256 262 258
56 51 41 38 52 147 175 186 179 183 197 212 226 239 244 246 223 212 206 229 242 249 253 255 254 254 254 254 255 255 251 246 238 232 224 229 234 239 241 251 253 255 261
48 54 51 47 39 40 43 41 34 234 230 241 243 240 246 251 231 214 205 232 247 253 254 253 253 254 260 258 252 253 254 253 255 257 241 237 238 240 233 230 238 246 254
52 54 53 52 52 51 38 18 10 351 310 278 273 268 261 254 243 215 204 226 251 263 268 271 271 276 269 269 260 256 258 262 261 256 256 248 236 232 230 226 225 231 240
42 46 46 44 39 39 37 12 354 347 317 295 286 283 279 280 275 220 208 226 258 272 277 281 293 325 313 293 275 264 264 266 265 260 256 253 248 242 235 229 224 222 226
43 36 32 37 41 30 16 0 341 338 330 330 331 325 326 340 358 14 305 269 268 268 279 291 303 303 299 287 268 262 261 258 256 256 256 254 252 251 247 242 234 228 227
45 34 22 29 33 30 5 360 359 357 2 355 342 336 337 350 17 18 356 326 306 292 296 304 304 289 278 270 271 264 248 245 247 253 257 259 259 257 254 250 246 239 236
19 8 359 12 23 348 332 325 323 338 265 277 317 326 331 334 345 349 337 325 322 320 318 299 289 285 280 275 272 267 260 252 248 251 257 262 262 261 259 255 252 247 244
8 358 351 354 1 348 334 330 285 255 223 222 236 256 290 286 295 306 304 296 292 294 295 285 285 284 285 286 285 284 281 275 269 263 260 259 260 261 262 258 254 251 250
352 343 340 347 349 341 336 330 321 289 242 237 243 252 260 289 306 304 300 302 295 287 276 280 285 291 298 301 301 301 298 296 291 282 275 269 264 262 261 262 259 256 253
336 338 342 348 341 326 322 324 323 327 331 325 270 259 275 290 293 293 299 310 302 293 293 299 302 303 304 306 310 311 311 309 305 299 291 285 279 272 267 263 260 259 258
330 339 351 338 319 318 332 337 337 341 342 342 345 350 341 319 305 301 310 307 308 311 313 315 314 313 312 312 313 311 308 305 304 302 295 288 283 277 272 267 264 263 258
327 332 324 319 318 339 350 347 345 344 342 347 349 352 352 338 329 327 327 320 314 316 318 317 315 314 315 312 311 311 309 305 303 300 296 292 286 280 277 274 271 268 260
330 330 321 324 349 0 352 344 343 343 346 346 344 356 357 337 333 336 337 336 330 326 324 321 317 316 314 310 310 311 310 307 307 306 304 301 296 291 287 281 278 275 274
320 329 342 351 358 7 352 344 353 355 350 347 341 343 347 342 340 337 333 330 328 325 324 322 319 318 315 312 312 311 308 310 312 312 308 306 306 301 296 291 287 283 279
321 339 352 2 1 3 357 1 356 352 350 347 344 342 342 340 334 331 328 326 325 323 321 318 315 315 314 312 308 305 305 307 306 306 306 304 305 303 298 293 288 286 282
337 358 2 3 4 1 357 355 354 352 348 343 341 341 340 337 332 331 330 328 325 322 321 320 318 318 319 318 312 309 311 313 311 304 302 300 300 298 297 295 292 291 291
4 12 6 4 2 358 358 356 353 351 347 344 343 341 338 333 331 332 333 330 327 325 325 323 321 322 324 325 325 326 326 317 306 306 302 296 293 293 292 293 293 294 292
20 17 8 5 6 3 2 358 355 351 347 345 343 341 339 337 337 336 334 333 332 328 326 326 327 329 331 331 333 335 327 321 316 312 302 292 290 291 298 298 299 296 291